Аэропорт
Запорожье (UKDE)

 UKDE / OZH
vACC Украина
Днепропетровск (UKDV)
Днепропетровск (UKDV)
 47.86700, 35.31570  / 373 ft

 UKDE 310900Z 29006MPS CAVOK 05/M03 Q1015 R20L/090070 NOSIG
 TAF UKDE 310801Z 3109/3118 31006MPS 9999 BKN030 TX04/3113Z TN01/3118Z TEMPO 3109/3115 33009G14MPS 3100 -SHSN BKN020 SCT030CB

Запорожье (укр. Запоріжжя) — международный аэропорт города Запорожье (Украина) обеспечивающий взлёт и посадку на двух взлётно-посадочных полосах (искусственной и грунтовой). Работает в круглосуточном режиме. Расположен в черте города к востоку от центра на расстоянии около 15 км от центральной части Запорожья. Эксплуатантом аэропорта является коммунальное предприятие «Международный аэропорт Запорожье».

Сценарии и схемы аэропорта Вы можете найти на сайте vACC Украина.



2020 © VATRUS division (Privacy Policy)